Ridgedale, MO

1:27 AM CST on December 10, 2016 (GMT -0600)
Branson

Weather History for KBBG - January, 2013

Change the Weather History Date:

Friday, January 4, 2013

  Actual Average (KHRO) Record (KHRO)
Temperature  
Mean Temperature 35 °F -  
Max Temperature 44 °F 42 °F 70 °F (1955)
Min Temperature 26 °F 23 °F -4 °F (1911)
Degree Days  
Heating Degree Days 30    
Moisture  
Dew Point 22 °F    
Average Humidity 64    
Maximum Humidity 93    
Minimum Humidity 37    
Precipitation  
Precipitation 0.00 in - - ()
Sea Level Pressure  
Sea Level Pressure 30.38 in    
Wind  
Wind Speed 1 mph (SW)    
Max Wind Speed 9 mph    
Max Gust Speed -    
Visibility 10 miles    
Events      
Averages and records for this station are not official NWS values.
T = Trace of Precipitation, MM = Missing Value Source: NWS Daily Summary

Daily Weather History Graph

Daily Weather History Graph

Search for Another Location

Airport or City:

Trip Planner

Search our weather history database for the weather conditions in past years. The results will help you decide how hot, cold, wet, or windy it might be!

Date:

Astronomy

Jan. 04, 2013 Rise Set
Actual Time 7:25 AM CST 5:10 PM CST
Civil Twilight 6:56 AM CST 5:39 PM CST
Nautical Twilight 6:24 AM CST 6:11 PM CST
Astronomical Twilight 5:53 AM CST 6:42 PM CST
Moon No Moon Rise 11:20 AM CST (1/4)
Length of Visible Light 10h 42m
Length of Day
9h 45m
Waning Gibbous, 55% of the Moon is Illuminated
Jan 4
Waning Gibbous
Jan 4
Last Quarter
Jan 11
New
Jan 18
First Quarter
Jan 26
Full

Hourly Weather History & Observations

Time (CST) Temp. Windchill Dew Point Humidity Pressure Visibility Wind Dir Wind Speed Gust Speed Precip Events Conditions
12:15 AM 28.4 °F - 23.0 °F 80% 30.39 in 10.0 mi Calm Calm - N/A   Mostly Cloudy
12:35 AM 30.2 °F - 23.0 °F 75% 30.38 in 10.0 mi Calm Calm - N/A   Overcast
12:55 AM 28.4 °F - 24.8 °F 86% 30.39 in 10.0 mi Calm Calm - N/A   Overcast
1:15 AM 28.4 °F - 23.0 °F 80% 30.39 in 10.0 mi Calm Calm - N/A   Overcast
1:35 AM 30.2 °F - 24.8 °F 80% 30.40 in 10.0 mi Calm Calm - N/A   Overcast
1:55 AM 30.2 °F - 26.6 °F 86% 30.40 in 10.0 mi Calm Calm - N/A   Overcast
2:15 AM 32.0 °F - 26.6 °F 80% 30.40 in 10.0 mi Calm Calm - N/A   Overcast
2:35 AM 32.0 °F - 26.6 °F 80% 30.40 in 10.0 mi Calm Calm - N/A   Overcast
2:55 AM 30.2 °F - 26.6 °F 86% 30.40 in 10.0 mi Calm Calm - N/A   Overcast
3:15 AM 30.2 °F - 26.6 °F 86% 30.40 in 10.0 mi Calm Calm - N/A   Overcast
5:35 AM 26.6 °F - 24.8 °F 93% 30.41 in 10.0 mi Calm Calm - N/A   Mostly Cloudy
7:47 AM 26.6 °F - 23.0 °F 86% 30.44 in 10.0 mi Calm Calm - N/A   Partly Cloudy
8:57 AM 28.4 °F - 24.8 °F 86% 30.45 in 10.0 mi Calm Calm - N/A   Partly Cloudy
9:57 AM 32.0 °F - 23.0 °F 69% 30.46 in 10.0 mi Calm Calm - N/A   Partly Cloudy
10:45 AM 35.6 °F 32.8 °F 21.2 °F 56% 30.46 in 10.0 mi WSW 3.5 mph - N/A   Partly Cloudy
11:45 AM 37.4 °F 32.8 °F 19.4 °F 48% 30.43 in 10.0 mi WNW 5.8 mph - N/A   Partly Cloudy
12:58 PM 41.0 °F 35.2 °F 19.4 °F 42% 30.39 in 10.0 mi WNW 9.2 mph - N/A   Clear
1:56 PM 41.0 °F 36.4 °F 19.4 °F 42% 30.37 in 10.0 mi NW 6.9 mph - N/A   Partly Cloudy
2:47 PM 42.8 °F 38.6 °F 19.4 °F 39% 30.36 in 10.0 mi WNW 6.9 mph - N/A   Clear
3:45 PM 44.6 °F - 19.4 °F 37% 30.36 in 10.0 mi Calm Calm - N/A   Partly Cloudy
4:45 PM 42.8 °F - 19.4 °F 39% 30.35 in 10.0 mi Calm Calm - N/A   Partly Cloudy
5:54 PM 37.4 °F - 21.2 °F 52% 30.35 in 10.0 mi Calm Calm - N/A   Clear
6:46 PM 35.6 °F - 21.2 °F 56% 30.35 in 10.0 mi Calm Calm - N/A   Clear
7:48 PM 37.4 °F 32.1 °F 19.4 °F 48% 30.35 in 10.0 mi SSW 6.9 mph - N/A   Clear
8:15 PM 37.4 °F 34.9 °F 19.4 °F 48% 30.35 in 10.0 mi SSW 3.5 mph - N/A   Clear
8:35 PM 37.4 °F - 19.4 °F 48% 30.35 in 10.0 mi Calm Calm - N/A   Clear
8:46 PM 37.4 °F 31.4 °F 19.4 °F 48% 30.35 in 10.0 mi SW 8.1 mph - N/A   Clear
8:55 PM 37.4 °F 33.8 °F 19.4 °F 48% 30.35 in 10.0 mi SSW 4.6 mph - N/A   Clear
9:15 PM 35.6 °F 30.7 °F 19.4 °F 52% 30.35 in 10.0 mi SSW 5.8 mph - N/A   Clear
9:35 PM 35.6 °F 30.7 °F 23.0 °F 60% 30.35 in 10.0 mi SSW 5.8 mph - N/A   Clear
9:55 PM 35.6 °F - 23.0 °F 60% 30.35 in 10.0 mi Calm Calm - N/A   Clear
10:15 PM 35.6 °F - 23.0 °F 60% 30.34 in 10.0 mi Calm Calm - N/A   Clear
10:35 PM 35.6 °F 30.7 °F 23.0 °F 60% 30.34 in 10.0 mi SSW 5.8 mph - N/A   Clear
10:55 PM 33.8 °F 28.6 °F 23.0 °F 65% 30.34 in 10.0 mi SSW 5.8 mph - N/A   Clear
11:15 PM 33.8 °F - 23.0 °F 65% 30.34 in 10.0 mi Calm Calm - N/A   Clear
11:35 PM 33.8 °F 30.8 °F 23.0 °F 65% 30.34 in 10.0 mi SW 3.5 mph - N/A   Clear
11:55 PM 32.0 °F - 23.0 °F 69% 30.31 in 10.0 mi Calm Calm - N/A   Clear